KW4TT-WX Weather Reports


Display with metric or nautical units.
time (UTC)temp
F
wind
direction
speed
MPH
gust
MPH
rain 1hr
in
rain 24hr
in
rain mn
in
humidity
%
barometer
mb
20260906105517 71 214 0.0 1.0 0.00 0.00 0.00 97 1012.4
20260906104533 71 153 1.0 2.0 0.00 0.00 0.00 97 1012.1
20260906103550 71 97 0.0 2.0 0.00 0.00 0.00 97 1012.2
20260906102547 71 87 0.0 2.0 0.00 0.00 0.00 97 1012.2
20260906101523 71 301 0.0 1.0 0.00 0.00 0.00 98 1012.2
20260906100520 71 39 0.0 2.0 0.00 0.00 0.00 98 1012.1
20260906095517 71 107 1.0 2.0 0.00 0.00 0.00 98 1011.9
20260906094533 71 83 1.0 2.0 0.00 0.00 0.00 98 1012.3
20260906093530 71 75 0.0 2.0 0.00 0.00 0.00 98 1012.1
20260906092526 71 250 1.0 2.0 0.00 0.00 0.00 98 1012.2
20260906091523 70 95 0.0 2.0 0.00 0.00 0.00 98 1012.1
20260906090520 70 67 1.0 2.0 0.00 0.00 0.00 98 1012.1
20260906085517 70 70 0.0 2.0 0.00 0.00 0.00 97 1012.2
20260906084533 70 0.0 2.0 0.00 0.00 0.00 97 1012.2
20260906083531 70 98 1.0 2.0 0.00 0.00 0.00 97 1012.2
20260906082547 70 43 1.0 2.0 0.00 0.00 0.00 97 1012.1
20260906081523 70 74 0.0 2.0 0.00 0.00 0.00 96 1012.0
20260906080520 71 41 0.0 1.0 0.00 0.00 0.00 96 1012.0
20260906075617 71 82 0.0 2.0 0.00 0.00 0.00 96 1011.9
20260906074533 71 207 0.0 2.0 0.00 0.00 0.00 96 1011.7
20260906073650 71 37 0.0 2.0 0.00 0.00 0.00 95 1011.9
20260906072527 71 172 0.0 2.0 0.00 0.00 0.00 95 1012.0
20260906071523 71 225 0.0 2.0 0.00 0.00 0.00 95 1012.2
20260906070520 71 96 1.0 2.0 0.00 0.00 0.00 94 1012.2
20260906065517 71 181 0.0 1.0 0.00 0.00 0.00 94 1012.2
20260906064534 71 66 0.0 2.0 0.00 0.00 0.00 94 1012.3
20260906063530 71 87 1.0 2.0 0.00 0.00 0.00 94 1012.4
20260906062527 71 80 1.0 2.0 0.00 0.00 0.00 94 1012.6
20260906061544 71 162 0.0 2.0 0.00 0.00 0.00 94 1012.6
20260906060521 72 84 1.0 2.0 0.00 0.00 0.00 94 1012.8
20260906060351 71 76 0.0 2.0 0.00 0.00 0.00 95 1012.9
20260906052548 72 107 0.0 2.0 0.00 0.00 0.00 94 1013.0
20260906052005 72 22 0.0 1.0 0.00 0.00 0.00 94 1013.0
20260906051320 72 237 1.0 2.0 0.00 0.00 0.00 94 1013.0
20260906050032 72 269 1.0 2.0 0.00 0.00 0.00 94 1013.1
20260906045048 72 89 0.0 2.0 0.00 0.00 0.00 94 1013.2
20260906044025 72 95 1.0 2.0 0.00 0.00 0.00 94 1013.2
20260906043022 72 85 0.0 1.0 0.00 0.00 0.00 93 1013.1
20260906042018 72 84 1.0 2.0 0.00 0.00 0.00 93 1013.2
20260906041035 72 150 0.0 2.0 0.00 0.00 0.00 92 1013.2
20260906040032 72 29 1.0 2.0 0.00 0.00 0.00 92 1013.2
20260906035029 72 218 0.0 2.0 0.00 0.00 0.00 93 1013.1
20260906034025 72 97 0.0 2.0 0.00 0.00 0.00 92 1013.1
20260906033022 72 38 0.0 2.0 0.00 0.00 0.00 92 1013.1
20260906032018 73 69 0.0 2.0 0.00 0.00 0.00 91 1013.1
20260906031035 73 83 0.0 2.0 0.00 0.00 0.00 90 1013.2
20260906030032 73 272 0.0 1.0 0.00 0.00 0.00 90 1013.5
20260906025029 74 86 0.0 2.0 0.00 0.00 0.00 88 1013.7
20260906024025 74 125 1.0 2.0 0.00 0.00 0.00 88 1013.7
20260906023022 74 177 1.0 2.0 0.00 0.00 0.00 87 1013.8
20260906022039 74 160 0.0 2.0 0.00 0.00 0.00 87 1013.8
20260906021035 75 201 1.0 2.0 0.00 0.00 0.00 87 1013.7
20260906020032 75 212 1.0 2.0 0.00 0.00 0.00 86 1013.7
20260906015028 75 230 1.0 2.0 0.00 0.00 0.00 85 1013.5
20260906014025 76 290 0.0 1.0 0.00 0.00 0.00 83 1013.2
20260906013022 76 199 0.0 2.0 0.00 0.00 0.00 82 1013.1
20260906012018 77 356 1.0 2.0 0.00 0.00 0.00 80 1013.0
20260906011035 77 209 2.0 3.0 0.00 0.00 0.00 79 1013.1
20260906010032 78 254 1.0 3.0 0.00 0.00 0.00 79 1013.1
20260906005029 78 77 1.0 2.0 0.00 0.00 0.00 77 1012.7
20260906004026 79 74 1.0 2.0 0.00 0.00 0.00 76 1012.6
20260906003023 79 177 1.0 3.0 0.00 0.00 0.00 76 1012.3
20260906002020 79 76 1.0 3.0 0.00 0.00 0.00 76 1012.1
20260906001017 79 80 1.0 3.0 0.00 0.00 0.00 76 1011.9
20260906000053 80 64 1.0 2.0 0.00 0.00 0.00 75 1011.8
20260905235030 80 291 0.0 2.0 0.00 0.00 0.00 75 1012.0
20260905234027 80 65 0.0 2.0 0.00 0.00 0.00 74 1012.0
20260905233024 81 0.0 0.0 0.00 0.00 0.00 73 1012.1
20260905232021 81 60 1.0 2.0 0.00 0.00 0.00 72 1011.9
20260905231017 81 75 1.0 2.0 0.00 0.00 0.00 71 1012.0
20260905230054 81 73 0.0 2.0 0.00 0.00 0.00 72 1012.1
20260905225031 81 330 1.0 2.0 0.00 0.00 0.00 72 1012.1
20260905224027 81 32 0.0 2.0 0.00 0.00 0.00 71 1012.3
20260905223024 82 288 1.0 2.0 0.00 0.00 0.00 69 1012.0
20260905222020 82 142 2.0 4.0 0.00 0.00 0.00 68 1011.9
20260905221017 83 315 1.0 2.0 0.00 0.00 0.00 63 1012.1
20260905220054 83 192 2.0 4.0 0.00 0.00 0.00 62 1012.2
20260905215030 84 314 1.0 4.0 0.00 0.00 0.00 60 1012.3
20260905214027 85 88 1.0 4.0 0.00 0.00 0.00 57 1012.4
20260905213029 86 14 2.0 4.0 0.00 0.00 0.00 57 1012.0
20260905212021 87 27 2.0 7.0 0.00 0.00 0.00 57 1011.9
20260905211018 88 67 3.0 10.0 0.00 0.00 0.00 57 1011.9
20260905210034 90 335 2.0 6.0 0.00 0.00 0.00 55 1011.8
20260905205030 93 30 4.0 7.0 0.00 0.00 0.00 51 1011.7
20260905204027 98 47 5.0 12.0 0.00 0.00 0.00 43 1011.9
20260905203026 101 268 2.0 4.0 0.00 0.00 0.00 39 1011.5
20260905202041 98 308 1.0 4.0 0.00 0.00 0.00 40 1011.5
20260905201037 98 262 2.0 4.0 0.00 0.00 0.00 41 1011.4
20260905200034 98 219 3.0 6.0 0.00 0.00 0.00 42 1011.5
20260905195030 98 114 2.0 3.0 0.00 0.00 0.00 40 1011.6
20260905194027 98 211 2.0 4.0 0.00 0.00 0.00 41 1011.5
20260905193024 96 255 2.0 3.0 0.00 0.00 0.00 43 1011.6
20260905192020 96 128 1.0 5.0 0.00 0.00 0.00 44 1011.7
20260905191017 95 127 2.0 4.0 0.00 0.00 0.00 47 1011.9
20260905190034 96 317 1.0 4.0 0.00 0.00 0.00 45 1012.2
20260905185031 98 17 2.0 5.0 0.00 0.00 0.00 43 1012.2
20260905184028 98 284 2.0 4.0 0.00 0.00 0.00 43 1012.1
20260905183044 97 168 3.0 7.0 0.00 0.00 0.00 43 1012.3
20260905182021 97 213 4.0 7.0 0.00 0.00 0.00 43 1012.4
20260905181017 98 243 3.0 7.0 0.00 0.00 0.00 45 1012.6
20260905180034 97 276 2.0 4.0 0.00 0.00 0.00 44 1012.6
20260905175030 96 99 3.0 5.0 0.00 0.00 0.00 46 1012.8
20260905174027 95 194 2.0 4.0 0.00 0.00 0.00 46 1013.0
20260905173024 94 216 2.0 4.0 0.00 0.00 0.00 48 1013.1
20260905172021 94 188 2.0 6.0 0.00 0.00 0.00 48 1013.2
20260905171017 94 182 2.0 5.0 0.00 0.00 0.00 48 1013.3
20260905170034 95 243 2.0 6.0 0.00 0.00 0.00 48 1013.6
20260905165031 95 215 4.0 6.0 0.00 0.00 0.00 49 1013.7
20260905164027 95 258 3.0 6.0 0.00 0.00 0.00 51 1014.0
20260905163024 94 304 2.0 5.0 0.00 0.00 0.00 54 1014.1
20260905162021 93 217 2.0 6.0 0.00 0.00 0.00 53 1014.2
20260905161017 93 14 2.0 5.0 0.00 0.00 0.00 54 1014.3
20260905160034 93 266 2.0 5.0 0.00 0.00 0.00 54 1014.3
20260905155031 93 298 2.0 4.0 0.00 0.00 0.00 55 1014.4
20260905154048 93 202 2.0 4.0 0.00 0.00 0.00 57 1014.5
20260905153024 92 255 1.0 4.0 0.00 0.00 0.00 60 1014.5
20260905152021 91 297 2.0 4.0 0.00 0.00 0.00 60 1014.8
20260905151019 90 226 2.0 7.0 0.00 0.00 0.00 61 1014.7
20260905150034 89 215 2.0 6.0 0.00 0.00 0.00 63 1014.8
20260905145031 89 231 2.0 7.0 0.00 0.00 0.00 62 1015.0
20260905144027 87 341 1.0 4.0 0.00 0.00 0.00 66 1015.1
20260905143024 87 211 3.0 8.0 0.00 0.00 0.00 67 1015.1
20260905142021 85 290 1.0 4.0 0.00 0.00 0.00 70 1015.1
20260905141018 84 186 1.0 4.0 0.00 0.00 0.00 73 1015.2
20260905140054 82 195 2.0 6.0 0.00 0.00 0.00 76 1015.1
20260905135031 81 204 2.0 4.0 0.00 0.00 0.00 78 1015.1
20260905134048 80 239 1.0 3.0 0.00 0.00 0.00 82 1015.3
20260905133024 79 202 1.0 3.0 0.00 0.00 0.00 83 1015.4
20260905132021 77 197 2.0 4.0 0.00 0.00 0.00 87 1015.4
20260905131018 76 192 2.0 4.0 0.00 0.00 0.00 90 1015.4
20260905130034 75 180 1.0 3.0 0.00 0.00 0.00 93 1015.4
20260905125031 75 191 1.0 4.0 0.00 0.00 0.00 94 1015.3
20260905124028 74 166 1.0 2.0 0.00 0.00 0.00 96 1015.3
20260905123024 73 168 1.0 3.0 0.00 0.00 0.00 97 1015.2
20260905122041 73 165 1.0 3.0 0.00 0.00 0.00 98 1015.2
20260905121017 72 173 1.0 3.0 0.00 0.00 0.00 99 1015.2
20260905120034 72 139 0.0 2.0 0.00 0.00 0.00 99 1015.1
20260905115031 72 159 1.0 2.0 0.00 0.00 0.00 99 1014.9
20260905114027 71 85 0.0 1.0 0.00 0.00 0.00 98 1014.9
20260905113024 71 185 0.0 1.0 0.00 0.00 0.00 98 1014.7
20260905112021 71 140 0.0 2.0 0.00 0.00 0.00 98 1014.5
20260905111017 71 105 0.0 2.0 0.00 0.00 0.00 98 1014.5
20260905110034 71 97 1.0 2.0 0.00 0.00 0.00 98 1014.4